Погода в Красноленинском

Россия / Ханты-Мансийский автономный округ - Югра     61°37′45″N   67°47′53″E
темп.,
°C
ветер,
м/с
пор.,
м/с
влажн.,
%
обл.,
%
осадки,
мм/ч
давл.,
гПа
погр.,
м
21 января, чт
чт2123:00−20вюв3888100 0.0 1017261
02:00−21в4987100 0.0 1014338
05:00−20в4990100 0.0 1013418
08:00−21в4996100 0.4 1010530
11:00−21в3796100 0.7 1011582
14:00−22всв3694100 0.3 1009590
17:00−23св3796100 0.4 1010524
20:00−25св3796100 0.2 1010494
22 января, пт
пт2223:00−26св4894100 0.3 1011423
02:00−27св4994100 0.1 1011468
05:00−28ссв4993100 0.2 1013476
08:00−30ссв4994100 0.1 1015415
11:00−32ссв4894100 0.1 1017346
14:00−33ссв4894100 0.0 1020343
17:00−36ссв3109396 0.0 1023326
20:00−37ссв399423 0.0 1026273
23 января, сб
сб2323:00−38с379516 0.0 1028179
02:00−39с25964 0.0 1030105
05:00−40с239627 0.0 103277
08:00−40с229630 0.0 103323
11:00−38с139526 0.0 1035104
14:00−36ссз139453 0.0 1035199
17:00−39с119748 0.0 103618
20:00−40ссв119725 0.0 103718
24 января, вс
вс2423:00−41ссв119725 0.0 103818
02:00−41ссв119731 0.0 103918
05:00−42св119731 0.0 103918
08:00−42всв119733 0.0 104118
11:00−40вюв119533 0.0 104131
14:00−37ююз119331 0.0 1042143
17:00−40ююв129649 0.0 104218
20:00−39ююв229689 0.0 104384
25 января, пн
пн2523:00−38ююв269495 0.0 1042179
02:00−37ююв3692100 0.0 1042223
05:00−36юв3792100 0.0 1041241
08:00−34юв389093 0.0 1041276
11:00−33юв379096 0.0 1041286
14:00−31юв3792100 0.0 1040299
17:00−30юв3797100 0.2 1039300
20:00−30юв4897100 0.4 1039315